{"data":{"norad_id":36585,"epoch":"2026-05-23T18:48:14.162400Z","epoch_age_seconds":190823,"freshness":"STALE","line1":"1 36585U 10022A   26143.78349725 -.00000007  00000+0  00000+0 0  9999","line2":"2 36585  54.2724 209.5453 0126358  66.1078 118.5533  2.00561193117107","mean_motion":2.00561193,"eccentricity":0.0126358,"inclination_deg":54.2724,"raan_deg":209.5453,"arg_perigee_deg":66.1078,"mean_anomaly_deg":118.5533,"bstar":0,"rev_number":11710,"period_min":717.98535821434,"perigee_km":19846.80974391,"apogee_km":20518.037609103,"semimajor_km":26560.560676507,"source":"CELESTRAK","updated_at":"2026-05-25T13:38:23.731013Z"}}